www.pogodaiklimat.ru

Погода и климат >> Архив погоды >> Россия >> Якутия >> Депутатский


ПОГОДА в Депутатском

  • Прогноз погоды в Депутатском
  • Монитор погоды в Депутатском
  • Климат города

АРХИВ ПОГОДЫ в Депутатском

Время (UTC), дата Ветер
(напр.,м/с)
 
Видим.   Явления Облачность Т
(С)
Тd
(С)
f
(%)
Тe
(С)
Тes
(С)
Комфортность P
(гПа)
Po
(гПа)
Тmin
(С)
Tmax
(С)
R
(мм)
R24
(мм)
S
(см)
00 11.11 штиль 0 20 км 4/1 1000 м
[Sc Ac trans]
-30.4 -33.4 75 -30 -30 1033.2 992.8
03 11.11 штиль 0 20 км 8/0
[Ac trans Ci fib]
-29.1 -32.2 74 -29 -29 1032.3 992.0
06 11.11 штиль 0 20 км 8/0
[Ac trans]
-29.0 -32.0 75 -29 -29 1032.6 992.3
09 11.11 штиль 0 20 км 3/0
[Ac trans]
-29.6 -31.9 80 -30 -30 1033.5 993.1 -28.8
12 11.11 штиль 0 20 км 3/0
[Ac trans]
-28.8 -31.2 80 -29 -29 1033.4 993.1
15 11.11 штиль 0 20 км 5/0
[Ac trans]
-26.6 -28.3 85 -27 -27 1033.0 993.1
18 11.11 штиль 0 20 км ясно -26.8 -29.3 79 -27 -27 1032.8 992.9
21 11.11 штиль 0 20 км ясно -27.5 -31.1 71 -28 -28 1031.1 991.3 -30.0 17
00 12.11 штиль 0 20 км 4/0
[Ac trans]
-28.6 -31.0 80 -29 -29 1030.3 990.1
03 12.11 штиль 0 20 км 10/5 1000 м
[Sc Ac trans Ci fib]
-24.7 -26.5 85 -25 -25 1028.5 989.0
06 12.11 штиль 0 20 км 6/4 1000 м
[Sc Ac trans Ci fib]
-24.9 -26.7 85 -25 -25 1029.8 990.3
09 12.11 штиль 0 20 км 3/3 1000 м
[Sc]
-27.1 -29.4 81 -27 -27 1032.0 992.1 -24.6
12 12.11 штиль 0 20 км ясно -28.1 -30.4 81 -28 -28 1033.4 993.3
15 12.11 СВ 3 20 км 5/0
[Ac trans]
-24.0 -25.8 85 -32 -32 опасность
обморожения
1032.8 993.3
18 12.11 СВ 4 20 км слабый снег 10/0
[Ac trans]
-23.2 -25.7 80 -33 -33 опасность
обморожения
1032.0 992.7
21 12.11 В 4 10 км слабый снег 10/0
[As op]
-17.3 -18.5 90 -26 -26 1028.4 990.2 -28.3 0.0 17
00 13.11 В 4 20 км {снег} 10/8 1000 м
[Sc Ac und]
-16.6 -17.9 90 -25 -25 1025.3 987.3
03 13.11 В 3 20 км слабый снег 10/10 930 м
[Sc]
-16.0 -17.3 90 -23 -23 1023.2 985.3
06 13.11 штиль 0 4000 м слабый снег 10/10 840 м
[Sc]
-16.2 -17.5 90 -16 -16 1022.4 984.5
09 13.11 штиль 0 10 км слабый снег 10/10 840 м
[Sc]
-16.1 -17.4 90 -16 -16 1022.4 984.5 -15.7 0.6
12 13.11 штиль 0 20 км в посл. час снег 10/8 900 м
[Sc As op]
-16.5 -17.8 90 -17 -17 1022.5 984.6
15 13.11 штиль 0 20 км слабый снег 10/10 900 м
[Sc]
-15.9 -17.2 90 -16 -16 1022.9 985.0
18 13.11 штиль 0 10 км слабый снег 10/10 800 м
[Sc]
-14.8 -16.1 90 -15 -15 1023.6 985.8
21 13.11 штиль 0 10 км слабый снег 10/10 800 м
[Sc]
-14.6 -15.9 90 -15 -15 1023.5 985.8 -16.8 0.7 18
00 14.11 СВ 1 20 км слабый снег 10/10 800 м
[Sc]
-13.4 -14.0 95 -16 -16 1023.0 985.7
03 14.11 2000 м снег 10/10 720 м
[Sc]
-12.7 -13.3 95 1021.7 984.3
06 14.11 В 2 4000 м слабый снег 10/10 720 м
[Sc]
-12.5 -13.1 95 -17 -17 1020.7 983.4
09 14.11 В 1 4000 м слабый снег 10/8 800 м
[Sc As op]
-14.5 -15.1 95 -17 -17 1021.3 983.7 -12.3 0.6
12 14.11 штиль 0 10 км слабый снег 10/0
[Cs]
-18.5 -19.7 90 -19 -19 1023.2 985.0
15 14.11 штиль 0 20 км {снег} 8/0
[Ci fib]
-20.9 -22.8 85 -21 -21 1024.0 985.4
18 14.11 штиль 0 20 км {снег} 5/0
[Ci fib]
-26.4 -28.8 80 -26 -26 1025.4 985.9
21 14.11 штиль 0 20 км ясно -29.6 -31.9 80 -30 -30 1025.9 985.7 -29.8 0.4 18
00 15.11 штиль 0 20 км ясно -31.0 -32.8 84 -31 -31 опасность
обморожения
1026.4 986.0 -32.1
03 15.11 штиль 0 20 км 6/0
[Ci fib]
-31.6 -33.8 81 -32 -32 опасность
обморожения
1025.5 985.1
06 15.11 штиль 0 20 км 8/3 600 м
[Sc Ci fib]
-31.8 -33.4 86 -32 -32 опасность
обморожения
1024.7 984.3
09 15.11 штиль 0 20 км 8/3 600 м
[Sc Ac trans]
-29.1 -30.9 84 -29 -29 1023.4 983.5 -28.9
12 15.11 штиль 0 20 км слабый снег 10/10 720 м
[Sc]
-25.8 -27.0 90 -26 -26 1022.2 982.8
15 15.11 штиль 0 20 км слабый снег 10/10 840 м
[Sc]
-24.0 -25.2 90 -24 -24 1021.0 982.0
18 15.11 штиль 0 20 км слабый снег 10/10 840 м
[Sc]
-23.6 -24.7 91 -24 -24 1021.0 982.0
21 15.11 штиль 0 20 км {снег} 10/4 600 м
[Sc Ac und]
-24.1 -25.3 90 -24 -24 1021.0 982.0 -29.2 0.2 18
00 16.11 штиль 0 20 км {снег} 3/0
[Ac trans]
-28.9 -31.3 80 -29 -29 1022.6 982.7 -29.3
03 16.11 штиль 0 20 км 3/0
[Ac trans]
-30.5 -32.7 81 -31 -31 опасность
обморожения
1022.9 982.7
06 16.11 штиль 0 20 км 4/0
[Ac trans]
-30.2 -32.5 80 -30 -30 1023.5 983.4
09 16.11 штиль 0 20 км ясно -32.6 -34.8 81 -33 -33 опасность
обморожения
1024.7 984.1 -24.0
12 16.11 штиль 0 20 км ясно -33.4 -35.6 80 -33 -33 опасность
обморожения
1025.0 984.4
15 16.11 штиль 0 20 км ясно -33.8 -36.8 74 -34 -34 опасность
обморожения
1025.6 984.8
18 16.11 штиль 0 20 км ясно -34.3 -37.1 76 -34 -34 опасность
обморожения
1026.1 985.3
21 16.11 штиль 0 20 км ясно -35.1 -38.0 75 -35 -35 опасность
обморожения
1026.7 985.6 -35.3 18
00 17.11 штиль 0 10 км 10/10 720 м
[Sc]
-31.8 -34.1 80 -32 -32 опасность
обморожения
1026.4 985.9
03 17.11 штиль 0 20 км 10/5 600 м
[Sc Ac und]
-31.4 -33.6 81 -31 -31 опасность
обморожения
1026.1 985.7
06 17.11 штиль 0 20 км 6/3 600 м
[Sc Ac trans]
-32.5 -34.8 80 -33 -33 опасность
обморожения
1026.6 985.9
09 17.11 штиль 0 20 км слабый снег 8/0
[As op]
-30.8 -33.2 79 -31 -31 опасность
обморожения
1026.3 985.9 -30.6 0.0
12 17.11 штиль 0 20 км слабый снег 8/0
[As op]
-31.7 -34.1 79 -32 -32 опасность
обморожения
1026.5 986.0
15 17.11 штиль 0 20 км слабый снег 10/0
[As op]
-32.7 -35.1 79 -33 -33 опасность
обморожения
1026.8 986.1
18 17.11 штиль 0 20 км слабый снег 8/4 600 м
[Sc As op]
-31.1 -34.0 75 -31 -31 опасность
обморожения
1026.1 985.7

 

Местоположение метеостанции Депутатский (Якутия, Россия): широта 69.38 долгота 139.80 высота над уровнем моря 284 м.

В архиве по умолчанию представлена погода в Депутатском за последнюю неделю. Архивные данные за месяц целиком и за предыдущие месяцы, начиная с января 2011 года, Вы можете получить, выбрав интересующий диапазон дат из раскрывающегося списка и нажав кнопку "Ввод!".


*Определитесь, кто Вы:
робот инопланетянин человек

Внимание! Время в таблицах - всемирное. Для получения местного времени необходимо прибавить поправку, которая в Депутатском равна 10 ч.

Смотрите также архив погоды в соседних городах и на ближайших метеорологических станциях:

Погода в Усть-Куйге (Якутия, Россия) (176 км)
Погода в Юбилейной (Якутия, Россия) (206 км)
Погода в Белой Горе (Якутия, Россия) (272 км)
Погода в Батагае (Якутия, Россия) (286 км)
Погода в Усть-Чарках (Якутия, Россия) (316 км)
Погода в Верхоянске (Якутия, Россия) (329 км)
Погода в Чокурдахе (Якутия, Россия) (334 км)
Погода в Усть-Моме (Якутия, Россия) (355 км)
Погода в Батагай-Алыте (Якутия, Россия) (421 км)
Погода на Мысе Кигилях (Якутия, Россия) (439 км)

Пояснения к столбцам:

Ветер - указаны скорость ветра в м/с - средняя за 10 мин, порывы в срок и между сроками (в фигурных скобках) и направление, откуда дует ветер: С - северный, СВ - северо-восточный, В - восточный, ЮВ - юго-восточный, Ю - южный, ЮЗ - юго-западный, З - западный, СЗ - северо-западный.
Видимость - горизонтальная дальность видимости в метрах или километрах. При видимости от 1 до 10 км при отсутствии осадков обычно наблюдается дымка, при ухудшении видимости до 1 км и менее - туман. В сухую погоду видимость может ухудшаться дымом, пылью или мглою.
Явления - указаны атмосферные явления, наблюдавшиеся в срок или в последний час перед сроком; фигурными скобками обозначены явления, наблюдавшиеся между сроками (за 1-3 часа до срока); квадратными скобками обозначены град или гололедные отложения с указанием их диаметра в мм.
Облачность - указаны через наклонную черту общая и нижняя облачность в баллах и высота нижней границы облаков в метрах; квадратными скобками обозначены формы облаков: Ci - перистые, Cs - перисто-слоистые, Cc - перисто-кучевые, Ac - высококучевые, As - высокослоистые, Sc - слоисто-кучевые, Ns - слоисто-дождевые, Cu - кучевые, Cb - кучево-дождевые. Подробнее классификацию облаков см. в Атласе облаков (PDF).
T - Температура воздуха - температура, измеренная на высоте 2 м над землей.
Td - Температура точки росы - температура, при понижении до которой содержащийся в воздухе водяной пар достигнет насыщения.
f - Относительная влажность воздуха - влажноcть воздуха, измеренная на высоте 2 м над землей.
Te - Эффективная температура - температура, которую ощущает одетый по сезону человек в тени. Характеристика душности погоды. При расчете учитывается влияние влажности воздуха и скорости ветра на теплоощущения человека.
Tes - Эффективная температура на солнце - температура, которую ощущает человек, с поправкой на солнечный нагрев. Характеристика знойности погоды. Зависит от высоты солнца над горизонтом, облачности и скорости ветра. Ночью, в пасмурную погоду, а также при ветре 12 м/с и более поправка равна нулю.
P - Атмосферное давление - приведенное к уровню моря атмосферное давление.
Po - Атмосферное давление - измеренное на уровне метеостанции атмосферное давление.
Tmin - Минимальная температура - минимум температуры воздуха на высоте 2 м над землей.
Tmax - Максимальная температура - максимум температуры воздуха на высоте 2 м над землей.
R - Количество осадков - Количество выпавших осадков за период времени, мм. При наведении курсора мыши на число - период времени, за который выпало указанное количество осадков.
R24 - Количество осадков - Количество выпавших осадков за 24 часа, мм.
S - Снежный покров - Высота снежного покрова, см. При наведении курсора мыши на число - состояние снежного покрова и степень покрытия местности в баллах.